Simultaneous Nadir Overpasses (SNOs) Predictions

Prediction of SNOs between GOES-15 and METOP-A Satellite Orbit:

Table of predicted SNOs for the next 14.0 days since TLE Epoch: 11/29/2013
Index Date Time (GOES-15) GOES-15 Lat,Lon METOP-A Lat,Lon Distance(km) Time Diff (sec)
1 11/30/2013 06:39:46 0.21,-135.45 -0.18,-137.22 201.59 80
2 12/01/2013 06:16:26 0.23,-135.45 0.93,-132.22 366.75 80
3 12/02/2013 18:37:56 -0.20,-135.40 0.09,-136.78 156.97 80
4 12/03/2013 18:14:35 -0.21,-135.39 -1.02,-131.78 411.16 80
5 12/05/2013 06:36:14 0.19,-135.40 -0.02,-136.37 109.90 80
6 12/06/2013 06:12:53 0.20,-135.39 1.09,-131.37 457.63 80
7 12/07/2013 18:34:23 -0.18,-135.33 -0.02,-135.91 67.40 80
8 12/10/2013 06:32:40 0.17,-135.32 0.12,-135.50 21.10 80
9 12/12/2013 18:28:10 -0.16,-135.24 -0.23,-135.07 20.41 80




NCC Satellite Simultaneous Nadir Overpasses (SNOs) Prediction Service
